2016-08-25 00:06:57 r, 20.93m,0000000000Hz,0001275711c,0000002.768s, 025.7C,00002191
2016-08-25 00:16:57 r, 20.91m,0000000000Hz,0001250744c,0000002.714s, 025.4C,00002191
2016-08-25 00:26:58 r, 20.88m,0000000000Hz,0001215590c,0000002.638s, 025.4C,00002191
2016-08-25 00:36:57 r, 20.87m,0000000001Hz,0001204267c,0000002.613s, 025.1C,00002191
2016-08-25 00:46:57 r, 20.84m,0000000000Hz,0001174006c,0000002.548s, 024.8C,00002191
2016-08-25 00:56:57 r, 19.88m,0000000001Hz,0000490494c,0000001.064s, 024.8C,00002191
2016-08-25 01:06:57 r, 19.86m,0000000001Hz,0000479250c,0000001.040s, 025.1C,00002191
2016-08-25 01:16:57 r, 19.41m,0000000001Hz,0000317754c,0000000.690s, 025.4C,00002191
2016-08-25 01:26:57 r, 20.61m,0000000000Hz,0000947504c,0000002.056s, 025.4C,00002191
2016-08-25 01:36:57 r, 20.47m,0000000001Hz,0000836797c,0000001.816s, 025.1C,00002191
2016-08-25 01:46:57 r, 20.60m,0000000000Hz,0000936090c,0000002.031s, 025.1C,00002191
2016-08-25 01:56:57 r, 20.34m,0000000000Hz,0000737455c,0000001.600s, 024.8C,00002191
2016-08-25 02:06:57 r, 19.92m,0000000001Hz,0000505062c,0000001.096s, 024.8C,00002191
2016-08-25 02:16:57 r, 20.12m,0000000001Hz,0000606793c,0000001.317s, 024.8C,00002191
2016-08-25 02:26:57 r, 20.33m,0000000000Hz,0000737213c,0000001.600s, 024.8C,00002191
2016-08-25 02:36:57 r, 20.47m,0000000000Hz,0000835146c,0000001.812s, 024.8C,00002191
2016-08-25 02:46:57 r, 19.45m,0000000002Hz,0000329214c,0000000.714s, 024.8C,00002191
2016-08-25 02:56:58 r, 19.47m,0000000002Hz,0000335147c,0000000.727s, 024.4C,00002191
2016-08-25 03:06:57 r, 19.19m,0000000001Hz,0000258107c,0000000.560s, 024.8C,00002191
2016-08-25 03:16:57 r, 19.25m,0000000001Hz,0000272608c,0000000.592s, 025.1C,00002191
2016-08-25 03:26:57 r, 19.25m,0000000002Hz,0000275602c,0000000.598s, 025.4C,00002191
2016-08-25 03:36:57 r, 19.16m,0000000001Hz,0000252572c,0000000.548s, 025.7C,00002191
2016-08-25 03:46:57 r, 19.22m,0000000001Hz,0000266842c,0000000.579s, 026.1C,00002191
2016-08-25 03:56:57 r, 19.25m,0000000002Hz,0000274626c,0000000.596s, 026.4C,00002191
2016-08-25 04:06:57 r, 19.30m,0000000001Hz,0000287297c,0000000.623s, 026.7C,00002191
2016-08-25 04:16:57 r, 19.15m,0000000002Hz,0000251899c,0000000.547s, 027.0C,00002191
2016-08-25 04:26:59 r, 19.36m,0000000002Hz,0000304196c,0000000.660s, 027.3C,00002191
2016-08-25 04:36:57 r, 19.43m,0000000001Hz,0000324370c,0000000.704s, 027.3C,00002191
2016-08-25 04:46:57 r, 19.51m,0000000001Hz,0000347387c,0000000.754s, 027.0C,00002191
2016-08-25 04:56:58 r, 19.39m,0000000002Hz,0000313111c,0000000.679s, 026.7C,00002191
2016-08-25 05:06:57 r, 19.19m,0000000002Hz,0000260175c,0000000.565s, 026.4C,00002191
2016-08-25 05:16:57 r, 19.48m,0000000001Hz,0000337871c,0000000.733s, 026.4C,00002191
2016-08-25 05:26:58 r, 18.94m,0000000002Hz,0000206314c,0000000.448s, 026.1C,00002191
2016-08-25 05:36:57 r, 17.39m,0000000009Hz,0000049837c,0000000.108s, 025.7C,00002191
2016-08-25 05:46:57 r, 15.80m,0000000040Hz,0000011464c,0000000.025s, 025.7C,00002191
2016-08-25 05:56:57 r, 14.59m,0000000122Hz,0000003763c,0000000.008s, 025.4C,00002191
2016-08-25 06:06:57 r, 12.76m,0000000670Hz,0000000000c,0000000.000s, 025.4C,00002191
2016-08-25 06:16:57 r, 10.36m,0000006068Hz,0000000000c,0000000.000s, 025.4C,00002191
2016-08-25 06:26:57 r, 09.16m,0000018328Hz,0000000000c,0000000.000s, 025.1C,00002191
2016-08-25 06:36:57 r, 08.57m,0000031616Hz,0000000000c,0000000.000s, 025.1C,00002191
2016-08-25 06:46:57 r, 07.82m,0000062842Hz,0000000000c,0000000.000s, 025.1C,00002191
2016-08-25 06:56:57 r, 07.15m,0000116703Hz,0000000000c,0000000.000s, 025.1C,00002191
2016-08-25 07:06:57 r, 06.60m,0000193170Hz,0000000000c,0000000.000s, 025.1C,00002191
2016-08-25 07:16:57 r, 00.00m,0000415619Hz,0000000000c,0000000.000s, 025.1C,00002191
2016-08-25 07:26:57 r, 00.00m,0000480904Hz,0000000000c,0000000.000s, 025.1C,00002191
2016-08-25 07:36:58 r, 00.00m,0000513449Hz,0000000000c,0000000.000s, 025.1C,00002191
2016-08-25 07:46:57 r, 00.00m,0000595936Hz,0000000000c,0000000.000s, 025.1C,00002191
2016-08-25 07:56:57 r, 00.00m,0000595875Hz,0000000000c,0000000.000s, 025.4C,00002191
2016-08-25 08:06:57 r, 00.00m,0000595874Hz,0000000000c,0000000.000s, 025.1C,00002191
2016-08-25 08:16:57 r, 00.00m,0000595911Hz,0000000000c,0000000.000s, 025.1C,00002191
2016-08-25 08:26:59 r, 00.00m,0000595791Hz,0000000000c,0000000.000s, 025.1C,00002191
2016-08-25 08:36:58 r, 00.00m,0000595839Hz,0000000000c,0000000.000s, 025.4C,00002191
2016-08-25 08:46:58 r, 00.00m,0000595895Hz,0000000000c,0000000.000s, 025.4C,00002191
2016-08-25 08:56:58 r, 00.00m,0000595850Hz,0000000000c,0000000.000s, 025.4C,00002191
2016-08-25 09:06:58 r, 00.00m,0000595802Hz,0000000000c,0000000.000s, 025.7C,00002191
2016-08-25 09:16:58 r, 00.00m,0000595931Hz,0000000000c,0000000.000s, 025.7C,00002191
2016-08-25 09:26:58 r, 00.00m,0000595644Hz,0000000000c,0000000.000s, 026.7C,00002191
2016-08-25 09:36:57 r, 00.00m,0000595488Hz,0000000000c,0000000.000s, 028.0C,00002191
2016-08-25 09:46:57 r, 00.00m,0000595422Hz,0000000000c,0000000.000s, 029.0C,00002191
2016-08-25 09:56:58 r, 00.00m,0000595218Hz,0000000000c,0000000.000s, 029.6C,00002191
2016-08-25 10:06:57 r, 00.00m,0000595202Hz,0000000000c,0000000.000s, 030.2C,00002191
2016-08-25 10:16:58 r, 00.00m,0000595237Hz,0000000000c,0000000.000s, 030.9C,00002191
2016-08-25 10:26:58 r, 00.00m,0000595198Hz,0000000000c,0000000.000s, 031.5C,00002191
2016-08-25 10:36:57 r, 00.00m,0000595146Hz,0000000000c,0000000.000s, 032.8C,00002191
2016-08-25 10:46:57 r, 00.00m,0000594965Hz,0000000000c,0000000.000s, 033.5C,00002191
2016-08-25 10:56:58 r, 00.00m,0000594627Hz,0000000000c,0000000.000s, 035.7C,00002191
2016-08-25 11:06:57 r, 00.00m,0000594272Hz,0000000000c,0000000.000s, 038.6C,00002191
2016-08-25 11:16:57 r, 00.00m,0000594085Hz,0000000000c,0000000.000s, 040.2C,00002191
2016-08-25 11:26:57 r, 00.00m,0000594220Hz,0000000000c,0000000.000s, 039.3C,00002191
2016-08-25 11:36:57 r, 00.00m,0000594275Hz,0000000000c,0000000.000s, 038.6C,00002191
2016-08-25 11:46:58 r, 00.00m,0000594093Hz,0000000000c,0000000.000s, 039.3C,00002191
2016-08-25 11:56:57 r, 00.00m,0000594130Hz,0000000000c,0000000.000s, 039.9C,00002191
2016-08-25 12:06:57 r, 00.00m,0000593810Hz,0000000000c,0000000.000s, 041.5C,00002191
2016-08-25 12:16:57 r, 00.00m,0000593806Hz,0000000000c,0000000.000s, 041.5C,00002191
2016-08-25 12:26:58 r, 00.00m,0000594030Hz,0000000000c,0000000.000s, 040.6C,00002191
2016-08-25 12:36:57 r, 00.00m,0000593982Hz,0000000000c,0000000.000s, 040.9C,00002191
2016-08-25 12:46:58 r, 00.00m,0000593620Hz,0000000000c,0000000.000s, 042.8C,00002191
2016-08-25 12:56:57 r, 00.00m,0000593724Hz,0000000000c,0000000.000s, 042.5C,00002191
2016-08-25 13:06:58 r, 00.00m,0000593358Hz,0000000000c,0000000.000s, 044.4C,00002191
2016-08-25 13:16:57 r, 00.00m,0000593324Hz,0000000000c,0000000.000s, 044.8C,00002191
2016-08-25 13:26:58 r, 00.00m,0000593417Hz,0000000000c,0000000.000s, 044.8C,00002191
2016-08-25 13:36:58 r, 00.00m,0000593632Hz,0000000000c,0000000.000s, 043.1C,00002191
2016-08-25 13:46:57 r, 00.00m,0000593848Hz,0000000000c,0000000.000s, 042.2C,00002191
2016-08-25 13:56:58 r, 00.00m,0000593924Hz,0000000000c,0000000.000s, 040.9C,00002191
2016-08-25 14:06:57 r, 00.00m,0000593354Hz,0000000000c,0000000.000s, 044.4C,00002191
2016-08-25 14:16:57 r, 00.00m,0000593670Hz,0000000000c,0000000.000s, 043.5C,00002191
2016-08-25 14:26:58 r, 00.00m,0000593582Hz,0000000000c,0000000.000s, 043.5C,00002191
2016-08-25 14:36:59 r, 00.00m,0000593355Hz,0000000000c,0000000.000s, 044.8C,00002191
2016-08-25 14:46:57 r, 00.00m,0000593280Hz,0000000000c,0000000.000s, 045.4C,00002191
2016-08-25 14:56:58 r, 00.00m,0000593434Hz,0000000000c,0000000.000s, 045.1C,00002191
2016-08-25 15:06:57 r, 00.00m,0000593296Hz,0000000000c,0000000.000s, 045.1C,00002191
2016-08-25 15:16:58 r, 00.00m,0000594038Hz,0000000000c,0000000.000s, 041.2C,00002191
2016-08-25 15:26:57 r, 00.00m,0000593861Hz,0000000000c,0000000.000s, 040.9C,00002191
2016-08-25 15:36:57 r, 00.00m,0000593819Hz,0000000000c,0000000.000s, 041.5C,00002191
2016-08-25 15:46:58 r, 00.00m,0000594085Hz,0000000000c,0000000.000s, 040.2C,00002191
2016-08-25 15:56:58 r, 00.00m,0000594340Hz,0000000000c,0000000.000s, 038.6C,00002191
2016-08-25 16:06:58 r, 00.00m,0000593993Hz,0000000000c,0000000.000s, 040.6C,00002191
2016-08-25 16:16:57 r, 00.00m,0000593755Hz,0000000000c,0000000.000s, 041.5C,00002191
2016-08-25 16:26:58 r, 00.00m,0000594211Hz,0000000000c,0000000.000s, 039.6C,00002191
2016-08-25 16:36:57 r, 00.00m,0000594129Hz,0000000000c,0000000.000s, 039.0C,00002191
2016-08-25 16:46:57 r, 00.00m,0000594470Hz,0000000000c,0000000.000s, 038.0C,00002191
2016-08-25 16:56:57 r, 00.00m,0000594384Hz,0000000000c,0000000.000s, 037.3C,00002191
2016-08-25 17:06:57 r, 00.00m,0000594323Hz,0000000000c,0000000.000s, 038.0C,00002191
2016-08-25 17:16:58 r, 00.00m,0000594342Hz,0000000000c,0000000.000s, 038.3C,00002191
2016-08-25 17:26:58 r, 00.00m,0000594254Hz,0000000000c,0000000.000s, 038.3C,00002191
2016-08-25 17:36:57 r, 00.00m,0000594377Hz,0000000000c,0000000.000s, 038.0C,00002191
2016-08-25 17:46:58 r, 00.00m,0000594551Hz,0000000000c,0000000.000s, 037.0C,00002191
2016-08-25 17:56:58 r, 00.00m,0000594628Hz,0000000000c,0000000.000s, 036.7C,00002191
2016-08-25 18:06:58 r, 00.00m,0000594579Hz,0000000000c,0000000.000s, 036.4C,00002191
2016-08-25 18:16:58 r, 00.00m,0000594627Hz,0000000000c,0000000.000s, 036.4C,00002191
2016-08-25 18:26:58 r, 00.00m,0000594577Hz,0000000000c,0000000.000s, 036.7C,00002191
2016-08-25 18:36:58 r, 00.00m,0000594628Hz,0000000000c,0000000.000s, 036.7C,00002191
2016-08-25 18:46:58 r, 00.00m,0000594655Hz,0000000000c,0000000.000s, 036.0C,00002191
2016-08-25 18:56:58 r, 00.00m,0000594635Hz,0000000000c,0000000.000s, 035.7C,00002191
2016-08-25 19:06:58 r, 00.00m,0000594800Hz,0000000000c,0000000.000s, 035.4C,00002191
2016-08-25 19:16:57 r, 00.00m,0000595013Hz,0000000000c,0000000.000s, 034.4C,00002191
2016-08-25 19:26:58 r, 00.00m,0000595013Hz,0000000000c,0000000.000s, 033.8C,00002191
2016-08-25 19:36:58 r, 00.00m,0000536113Hz,0000000000c,0000000.000s, 033.1C,00002191
2016-08-25 19:46:58 r, 00.00m,0000432649Hz,0000000000c,0000000.000s, 032.2C,00002191
2016-08-25 19:56:58 r, 06.02m,0000333260Hz,0000000000c,0000000.000s, 031.2C,00002191
2016-08-25 20:06:58 r, 06.43m,0000226945Hz,0000000000c,0000000.000s, 030.2C,00002191
2016-08-25 20:16:58 r, 07.03m,0000130548Hz,0000000000c,0000000.000s, 029.6C,00002191
2016-08-25 20:26:58 r, 07.89m,0000058835Hz,0000000000c,0000000.000s, 028.6C,00002191
2016-08-25 20:36:58 r, 09.18m,0000018027Hz,0000000000c,0000000.000s, 027.7C,00002191
2016-08-25 20:46:58 r, 10.92m,0000003630Hz,0000000000c,0000000.000s, 026.7C,00002191
2016-08-25 20:56:58 r, 12.90m,0000000585Hz,0000000000c,0000000.000s, 025.7C,00002191
2016-08-25 21:06:58 r, 14.96m,0000000087Hz,0000005300c,0000000.012s, 025.4C,00002191
2016-08-25 21:16:58 r, 16.71m,0000000017Hz,0000026459c,0000000.057s, 024.8C,00002191
2016-08-25 21:26:58 r, 18.04m,0000000006Hz,0000090335c,0000000.196s, 024.4C,00002191
2016-08-25 21:36:58 r, 19.21m,0000000002Hz,0000265874c,0000000.577s, 023.8C,00002191
2016-08-25 21:46:58 r, 20.10m,0000000001Hz,0000599816c,0000001.302s, 023.5C,00002191
2016-08-25 21:56:58 r, 20.62m,0000000000Hz,0000960259c,0000002.084s, 023.5C,00002191
2016-08-25 22:06:58 r, 20.82m,0000000001Hz,0001151206c,0000002.498s, 023.2C,00002191
2016-08-25 22:16:58 r, 20.93m,0000000000Hz,0001268575c,0000002.753s, 023.2C,00002191
2016-08-25 22:26:58 r, 20.92m,0000000000Hz,0001252694c,0000002.719s, 023.2C,00002191
2016-08-25 22:36:58 r, 20.92m,0000000000Hz,0001260379c,0000002.735s, 023.2C,00002191
2016-08-25 22:46:58 r, 20.92m,0000000000Hz,0001261164c,0000002.737s, 023.2C,00002191
2016-08-25 22:56:58 r, 20.92m,0000000001Hz,0001259860c,0000002.734s, 023.5C,00002191
2016-08-25 23:06:58 r, 20.93m,0000000000Hz,0001262163c,0000002.739s, 023.2C,00002191
2016-08-25 23:16:58 r, 20.92m,0000000000Hz,0001261268c,0000002.737s, 023.2C,00002191
2016-08-25 23:26:58 r, 20.94m,0000000000Hz,0001273337c,0000002.763s, 023.2C,00002191
2016-08-25 23:36:58 r, 20.93m,0000000001Hz,0001267676c,0000002.751s, 022.8C,00002191
2016-08-25 23:46:58 r, 20.94m,0000000001Hz,0001281780c,0000002.782s, 022.5C,00002191
2016-08-25 23:56:58 r, 20.98m,0000000001Hz,0001320375c,0000002.865s, 022.5C,00002191
